Avalon, CA

11:22 PM PDT on April 26, 2017 (GMT -0700)
Catalina

Weather History for KAVX - November, 2012

Change the Weather History Date:

Friday, November 2, 2012

  Actual Average Record
Temperature  
Mean Temperature 58 °F -  
Max Temperature 64 °F 60 °F 84 °F (2010)
Min Temperature 53 °F 50 °F 48 °F (2003)
Degree Days  
Heating Degree Days 7    
Growing Degree Days 8 (Base 50)    
Moisture  
Dew Point 52 °F    
Average Humidity 80    
Maximum Humidity 88    
Minimum Humidity 67    
Precipitation  
Precipitation 0.00 in - - ()
Sea Level Pressure  
Sea Level Pressure 29.99 in    
Wind  
Wind Speed 5 mph (West)    
Max Wind Speed 10 mph    
Max Gust Speed -    
Visibility 10 miles    
Events      
Averages and records for this station are not official NWS values.
T = Trace of Precipitation, MM = Missing Value Source: NWS Daily Summary

Daily Weather History Graph

Daily Weather History Graph

Search for Another Location

Airport or City:

Trip Planner

Search our weather history database for the weather conditions in past years. The results will help you decide how hot, cold, wet, or windy it might be!

Date:

Astronomy

Nov. 02, 2012 Rise Set
Actual Time 7:13 AM PDT 6:00 PM PDT
Civil Twilight 6:47 AM PDT 6:26 PM PDT
Nautical Twilight 6:18 AM PDT 6:55 PM PDT
Astronomical Twilight 5:49 AM PDT 7:24 PM PDT
Moon 8:57 PM PDT (11/2) 10:31 AM PDT (11/2)
Length of Visible Light 11h 38m
Length of Day
10h 46m
Waning Gibbous, 86% of the Moon is Illuminated
Nov 2
Waning Gibbous
Nov 6
Last Quarter
Nov 13
New
Nov 20
First Quarter
Nov 28
Full

Hourly Weather History & Observations

Time (PDT) Temp. Dew Point Humidity Pressure Visibility Wind Dir Wind Speed Gust Speed Precip Events Conditions
12:28 AM 55.4 °F 51.8 °F 88% 30.01 in 10.0 mi NW 5.8 mph - N/A   Overcast
12:51 AM 55.9 °F 52.0 °F 87% 29.99 in 10.0 mi West 4.6 mph - N/A   Overcast
1:51 AM 55.9 °F 52.0 °F 87% 29.98 in 10.0 mi West 9.2 mph - N/A   Overcast
2:51 AM 55.9 °F 52.0 °F 87% 29.98 in 10.0 mi West 6.9 mph - N/A   Overcast
3:42 AM 55.4 °F 51.8 °F 88% 30.00 in 10.0 mi Calm Calm - N/A   Overcast
3:51 AM 55.9 °F 51.1 °F 84% 29.98 in 10.0 mi NW 3.5 mph - N/A   Overcast
4:51 AM 55.9 °F 52.0 °F 87% 29.98 in 10.0 mi West 4.6 mph - N/A   Overcast
5:51 AM 55.9 °F 52.0 °F 87% 29.98 in 10.0 mi West 3.5 mph - N/A   Overcast
6:51 AM 54.0 °F 50.0 °F 86% 29.98 in 10.0 mi Calm Calm - N/A   Scattered Clouds
7:03 AM 53.6 °F 50.0 °F 88% 30.00 in 10.0 mi Calm Calm - N/A   Mostly Cloudy
7:51 AM 55.0 °F 51.1 °F 86% 30.00 in 10.0 mi South 3.5 mph - N/A   Mostly Cloudy
9:43 AM 60.8 °F 51.8 °F 72% 30.03 in 10.0 mi SE 5.8 mph - N/A   Scattered Clouds
9:51 AM 61.0 °F 51.1 °F 70% 30.01 in 10.0 mi South 6.9 mph - N/A   Partly Cloudy
10:51 AM 61.0 °F 52.0 °F 72% 30.01 in 10.0 mi Variable 4.6 mph - N/A   Mostly Cloudy
11:07 AM 60.8 °F 51.8 °F 72% 30.03 in 10.0 mi Variable 4.6 mph - N/A   Scattered Clouds
11:28 AM 60.8 °F 51.8 °F 72% 30.03 in 10.0 mi West 8.1 mph - N/A   Mostly Cloudy
11:51 AM 60.1 °F 52.0 °F 75% 30.00 in 10.0 mi West 10.4 mph - N/A   Mostly Cloudy
12:06 PM 60.8 °F 53.6 °F 77% 30.02 in 10.0 mi West 9.2 mph - N/A   Overcast
12:51 PM 59.0 °F 52.0 °F 78% 29.98 in 10.0 mi WSW 4.6 mph - N/A   Scattered Clouds
2:51 PM 63.0 °F 52.0 °F 67% 29.93 in 10.0 mi West 4.6 mph - N/A   Clear
3:51 PM 62.1 °F 54.0 °F 75% 29.94 in 10.0 mi West 8.1 mph - N/A   Clear
4:51 PM 60.1 °F 54.0 °F 80% 29.95 in 10.0 mi West 6.9 mph - N/A   Clear
5:51 PM 57.9 °F 53.1 °F 84% 29.95 in 10.0 mi West 4.6 mph - N/A   Clear
6:51 PM 57.0 °F 52.0 °F 83% 29.96 in 10.0 mi WNW 3.5 mph - N/A   Clear
7:51 PM 55.9 °F 52.0 °F 87% 29.98 in 10.0 mi WNW 5.8 mph - N/A   Clear
8:51 PM 57.9 °F 50.0 °F 75% 29.97 in 10.0 mi NNW 3.5 mph - N/A   Clear
10:51 PM 59.0 °F 48.0 °F 67% 29.98 in 10.0 mi NNW 3.5 mph - N/A   Clear
11:51 PM 57.0 °F 48.0 °F 72% 29.98 in 10.0 mi Calm Calm - N/A   Clear